Ketchikan, AK

2:20 PM AKDT on July 22, 2018 (GMT -0800)
Ketchikan International

Weather History for PAKT - July, 2018

Change the Weather History Date:

Friday, July 20, 2018

  Actual Average Record
Temperature  
Mean Temperature 64 °F -  
Max Temperature 73 °F 67 °F 82 °F (1956)
Min Temperature 55 °F 51 °F 44 °F (1991)
Degree Days  
Heating Degree Days 1    
Growing Degree Days 14 (Base 50)    
Moisture  
Dew Point 52 °F    
Average Humidity 71    
Maximum Humidity 93    
Minimum Humidity 51    
Precipitation  
Precipitation 0.00 in - - ()
Sea Level Pressure  
Sea Level Pressure 30.20 in    
Wind  
Wind Speed 9 mph (NNW)    
Max Wind Speed 13 mph    
Max Gust Speed 21 mph    
Visibility 10 miles    
Events      
Averages and records for this station are not official NWS values.
T = Trace of Precipitation, MM = Missing Value Source: NWS Daily Summary

Daily Weather History Graph

Daily Weather History Graph

Search for Another Location

Airport or City:

Astronomy

Jul. 20, 2018 Rise Set
Actual Time 4:33 AM AKDT 9:11 PM AKDT
Civil Twilight 3:41 AM AKDT 10:03 PM AKDT
Nautical Twilight 2:15 AM AKDT 11:27 PM AKDT
Astronomical Twilight Sun does not set Sun does not set
Moon 2:36 PM AKDT (7/20) 12:21 AM AKDT (7/20)
Length of Visible Light 18h 21m
Length of Day
16h 37m
First Quarter, 60% of the Moon is Illuminated
Jul 20
First Quarter
Jul 27
Full
Aug 4
Last Quarter
Aug 11
New
Aug 17
First Quarter

Hourly Weather History & Observations

Time (AKDT) Temp. Dew Point Humidity Pressure Visibility Wind Dir Wind Speed Gust Speed Precip Events Conditions
12:53 AM 59.0 °F 52.0 °F 78% 30.19 in 10.0 mi North 9.2 mph - N/A   Scattered Clouds
1:53 AM 59.0 °F 51.1 °F 75% 30.20 in 10.0 mi NNW 11.5 mph - N/A   Scattered Clouds
2:53 AM 57.9 °F 51.1 °F 78% 30.20 in 10.0 mi North 6.9 mph - N/A   Mostly Cloudy
3:45 AM 57.0 °F 51.1 °F 81% 30.19 in 10.0 mi North 8.1 mph - N/A   Overcast
3:53 AM 57.0 °F 51.1 °F 81% 30.20 in 10.0 mi North 9.2 mph - N/A   Mostly Cloudy
4:13 AM 57.0 °F 51.1 °F 81% 30.19 in 10.0 mi North 10.4 mph - N/A   Scattered Clouds
4:50 AM 57.2 °F 51.8 °F 82% 30.20 in 10.0 mi North 8.1 mph - N/A   Mostly Cloudy
4:53 AM 57.0 °F 51.1 °F 81% 30.20 in 10.0 mi North 8.1 mph - N/A   Mostly Cloudy
5:53 AM 57.9 °F 51.1 °F 78% 30.22 in 10.0 mi NNE 4.6 mph - N/A   Overcast
6:09 AM 57.9 °F 51.1 °F 78% 30.22 in 10.0 mi North 6.9 mph - N/A   Mostly Cloudy
6:53 AM 57.9 °F 51.1 °F 78% 30.21 in 10.0 mi NW 8.1 mph - N/A   Mostly Cloudy
7:53 AM 59.0 °F 51.1 °F 75% 30.21 in 10.0 mi NW 6.9 mph - N/A   Mostly Cloudy
8:53 AM 60.8 °F 51.8 °F 72% 30.21 in 10.0 mi NNW 9.2 mph - N/A   Mostly Cloudy
9:53 AM 62.6 °F 51.8 °F 68% 30.20 in 10.0 mi WNW 10.4 mph - N/A   Mostly Cloudy
10:53 AM 64.9 °F 50.0 °F 58% 30.20 in 10.0 mi NNW 12.7 mph - N/A   Scattered Clouds
11:53 AM 66.9 °F 51.1 °F 57% 30.19 in 10.0 mi NW 10.4 mph - N/A   Partly Cloudy
12:53 PM 69.8 °F 51.8 °F 53% 30.19 in 10.0 mi NW 10.4 mph 20.7 mph N/A   Partly Cloudy
1:53 PM 69.8 °F 53.6 °F 56% 30.19 in 10.0 mi NNW 11.5 mph - N/A   Clear
2:53 PM 71.1 °F 52.0 °F 51% 30.18 in 10.0 mi NNW 9.2 mph - N/A   Clear
3:53 PM 71.1 °F 52.0 °F 51% 30.18 in 10.0 mi NNW 10.4 mph - N/A   Clear
4:53 PM 71.1 °F 52.0 °F 51% 30.17 in 10.0 mi NNW 9.2 mph - N/A   Clear
5:53 PM 70.0 °F 52.0 °F 53% 30.17 in 10.0 mi NW 6.9 mph - N/A   Clear
6:53 PM 66.0 °F 52.0 °F 60% 30.19 in 10.0 mi ESE 10.4 mph - N/A   Clear
7:53 PM 64.0 °F 53.1 °F 67% 30.20 in 10.0 mi SE 6.9 mph - N/A   Clear
8:53 PM 62.1 °F 52.0 °F 70% 30.22 in 10.0 mi South 4.6 mph - N/A   Clear
9:53 PM 57.9 °F 53.1 °F 84% 30.22 in 10.0 mi SSE 6.9 mph - N/A   Clear
10:53 PM 57.0 °F 54.0 °F 89% 30.23 in 10.0 mi South 4.6 mph - N/A   Clear
11:53 PM 55.9 °F 54.0 °F 93% 30.23 in 10.0 mi South 3.5 mph - N/A   Clear